Time,TemperatureF,DewpointF,PressureIn,WindDirection,WindDirectionDegrees,WindSpeedMPH,WindSpeedGustMPH,Humidity,HourlyPrecipIn,Conditions,Clouds,dailyrainin,SolarRadiationWatts/m^2,SoftwareType,DateUTC
2013-09-10 00:07:00,55.3,54.0,29.79,South,189,1.0,3.0,94,0.00,,,0.00,0,weatherlink.com 1.10,2013-09-10 07:07:00,
2013-09-10 00:22:00,55.4,54.0,29.79,South,189,1.0,3.0,95,0.00,,,0.00,0,weatherlink.com 1.10,2013-09-10 07:22:00,
2013-09-10 00:37:00,55.3,54.0,29.79,South,189,0.0,3.0,95,0.00,,,0.00,0,weatherlink.com 1.10,2013-09-10 07:37:00,
2013-09-10 00:52:00,55.2,54.0,29.79,South,189,0.0,3.0,95,0.00,,,0.00,0,weatherlink.com 1.10,2013-09-10 07:52:00,
2013-09-10 01:07:00,55.0,54.0,29.79,South,189,2.0,5.0,95,0.00,,,0.00,0,weatherlink.com 1.10,2013-09-10 08:07:00,
2013-09-10 01:22:00,54.6,53.0,29.79,South,189,3.0,5.0,95,0.00,,,0.00,0,weatherlink.com 1.10,2013-09-10 08:22:00,
2013-09-10 01:37:00,54.3,53.0,29.80,South,189,1.0,6.0,95,0.00,,,0.00,0,weatherlink.com 1.10,2013-09-10 08:37:00,
2013-09-10 01:52:00,54.0,53.0,29.80,South,189,4.0,6.0,95,0.00,,,0.00,0,weatherlink.com 1.10,2013-09-10 08:52:00,
2013-09-10 02:07:00,53.7,52.0,29.80,South,189,3.0,5.0,95,0.00,,,0.00,0,weatherlink.com 1.10,2013-09-10 09:07:00,
2013-09-10 02:22:00,53.5,52.0,29.80,South,189,1.0,4.0,95,0.00,,,0.00,0,weatherlink.com 1.10,2013-09-10 09:22:00,
2013-09-10 02:37:00,53.6,53.0,29.80,South,188,1.0,4.0,96,0.00,,,0.00,0,weatherlink.com 1.10,2013-09-10 09:37:00,
2013-09-10 02:52:00,53.8,53.0,29.80,South,188,1.0,5.0,96,0.00,,,0.00,0,weatherlink.com 1.10,2013-09-10 09:52:00,
2013-09-10 03:07:00,53.9,53.0,29.80,South,188,2.0,5.0,96,0.00,,,0.00,0,weatherlink.com 1.10,2013-09-10 10:07:00,
2013-09-10 03:22:00,53.8,53.0,29.80,South,188,3.0,4.0,96,0.01,,,0.01,0,weatherlink.com 1.10,2013-09-10 10:22:00,
2013-09-10 03:37:00,53.8,53.0,29.80,South,187,0.0,5.0,96,0.01,,,0.01,0,weatherlink.com 1.10,2013-09-10 10:37:00,
2013-09-10 03:52:00,53.8,53.0,29.80,South,186,1.0,4.0,96,0.01,,,0.01,0,weatherlink.com 1.10,2013-09-10 10:52:00,
2013-09-10 04:07:00,53.9,53.0,29.80,South,186,2.0,3.0,96,0.01,,,0.01,0,weatherlink.com 1.10,2013-09-10 11:07:00,
2013-09-10 04:22:00,54.3,53.0,29.80,South,183,0.0,6.0,96,0.00,,,0.01,0,weatherlink.com 1.10,2013-09-10 11:22:00,
2013-09-10 04:37:00,54.4,53.0,29.80,SSE,163,2.0,7.0,96,0.00,,,0.01,0,weatherlink.com 1.10,2013-09-10 11:37:00,
2013-09-10 04:52:00,54.2,53.0,29.80,SSE,159,1.0,5.0,96,0.00,,,0.01,0,weatherlink.com 1.10,2013-09-10 11:52:00,
2013-09-10 05:07:00,54.2,53.0,29.80,SSE,158,0.0,4.0,96,0.00,,,0.01,0,weatherlink.com 1.10,2013-09-10 12:07:00,
2013-09-10 05:22:00,54.4,53.0,29.80,SSE,158,1.0,4.0,96,0.00,,,0.01,0,weatherlink.com 1.10,2013-09-10 12:22:00,
2013-09-10 05:37:00,54.1,53.0,29.81,SSE,159,1.0,4.0,96,0.00,,,0.01,0,weatherlink.com 1.10,2013-09-10 12:37:00,
2013-09-10 05:52:00,54.6,54.0,29.80,SSE,158,1.0,3.0,96,0.00,,,0.01,0,weatherlink.com 1.10,2013-09-10 12:52:00,
2013-09-10 06:07:00,55.1,54.0,29.81,SSE,158,1.0,5.0,97,0.00,,,0.01,0,weatherlink.com 1.10,2013-09-10 13:07:00,
2013-09-10 06:22:00,55.5,55.0,29.81,SSE,157,0.0,4.0,97,0.00,,,0.01,0,weatherlink.com 1.10,2013-09-10 13:22:00,
2013-09-10 06:37:00,55.8,55.0,29.82,SSE,157,1.0,4.0,97,0.00,,,0.01,0,weatherlink.com 1.10,2013-09-10 13:37:00,
2013-09-10 06:52:00,56.6,56.0,29.82,SSE,156,3.0,4.0,97,0.00,,,0.01,0,weatherlink.com 1.10,2013-09-10 13:52:00,
2013-09-10 07:07:00,56.9,56.0,29.82,SSE,156,3.0,4.0,97,0.00,,,0.01,7,weatherlink.com 1.10,2013-09-10 14:07:00,
2013-09-10 07:22:00,57.2,56.0,29.82,SSE,153,3.0,6.0,97,0.00,,,0.01,12,weatherlink.com 1.10,2013-09-10 14:22:00,
2013-09-10 07:37:00,57.5,57.0,29.83,SSE,147,2.0,6.0,97,0.00,,,0.01,19,weatherlink.com 1.10,2013-09-10 14:37:00,
2013-09-10 07:52:00,57.7,57.0,29.83,SE,146,3.0,5.0,97,0.00,,,0.01,30,weatherlink.com 1.10,2013-09-10 14:52:00,
2013-09-10 08:07:00,57.5,57.0,29.84,South,175,2.0,8.0,97,0.00,,,0.01,37,weatherlink.com 1.10,2013-09-10 15:07:00,
2013-09-10 08:22:00,57.1,56.0,29.84,South,174,3.0,5.0,97,0.00,,,0.01,54,weatherlink.com 1.10,2013-09-10 15:22:00,
2013-09-10 08:37:00,56.9,56.0,29.84,SSE,167,3.0,6.0,97,0.00,,,0.01,70,weatherlink.com 1.10,2013-09-10 15:37:00,
2013-09-10 08:53:00,57.1,56.0,29.84,SSE,167,3.0,7.0,97,0.00,,,0.01,90,weatherlink.com 1.10,2013-09-10 15:53:00,
2013-09-10 09:08:00,56.4,56.0,29.85,SE,146,9.0,15.0,97,0.00,,,0.01,105,weatherlink.com 1.10,2013-09-10 16:08:00,
2013-09-10 09:23:00,56.6,56.0,29.85,SE,143,6.0,13.0,97,0.00,,,0.01,192,weatherlink.com 1.10,2013-09-10 16:23:00,
2013-09-10 09:38:00,56.9,56.0,29.86,SSE,148,4.0,10.0,97,0.00,,,0.01,227,weatherlink.com 1.10,2013-09-10 16:38:00,
2013-09-10 09:53:00,58.0,57.0,29.86,SSE,168,5.0,9.0,97,0.00,,,0.01,186,weatherlink.com 1.10,2013-09-10 16:53:00,
2013-09-10 10:08:00,58.4,58.0,29.86,SSE,163,3.0,10.0,97,0.00,,,0.01,195,weatherlink.com 1.10,2013-09-10 17:08:00,
2013-09-10 10:23:00,58.8,58.0,29.86,SSE,151,5.0,9.0,97,0.00,,,0.01,271,weatherlink.com 1.10,2013-09-10 17:23:00,
2013-09-10 10:38:00,59.4,59.0,29.87,South,183,9.0,10.0,97,0.00,,,0.01,320,weatherlink.com 1.10,2013-09-10 17:38:00,
2013-09-10 10:53:00,60.2,59.0,29.87,South,175,3.0,8.0,97,0.00,,,0.01,350,weatherlink.com 1.10,2013-09-10 17:53:00,
2013-09-10 11:08:00,60.8,60.0,29.87,SSE,164,3.0,8.0,96,0.00,,,0.01,392,weatherlink.com 1.10,2013-09-10 18:08:00,
2013-09-10 11:23:00,61.3,60.0,29.87,South,182,4.0,9.0,95,0.00,,,0.01,385,weatherlink.com 1.10,2013-09-10 18:23:00,
2013-09-10 11:38:00,62.0,60.0,29.88,SSE,168,6.0,9.0,94,0.00,,,0.01,376,weatherlink.com 1.10,2013-09-10 18:38:00,
2013-09-10 11:53:00,61.9,60.0,29.88,South,180,6.0,11.0,93,0.00,,,0.01,366,weatherlink.com 1.10,2013-09-10 18:53:00,
2013-09-10 12:08:00,61.9,60.0,29.88,South,180,6.0,9.0,92,0.00,,,0.01,294,weatherlink.com 1.10,2013-09-10 19:08:00,
2013-09-10 12:37:00,61.8,59.0,29.88,South,181,4.0,12.0,90,0.00,,,0.01,397,weatherlink.com 1.10,2013-09-10 19:37:00,
2013-09-10 13:14:00,62.2,58.0,29.89,South,182,5.0,11.0,87,0.00,,,0.01,295,weatherlink.com 1.10,2013-09-10 20:14:00,
2013-09-10 13:23:00,62.0,58.0,29.89,SSE,159,8.0,11.0,87,0.00,,,0.01,366,weatherlink.com 1.10,2013-09-10 20:23:00,
2013-09-10 13:38:00,61.7,58.0,29.89,South,184,5.0,9.0,87,0.00,,,0.01,332,weatherlink.com 1.10,2013-09-10 20:38:00,
2013-09-10 13:53:00,61.6,58.0,29.89,South,175,4.0,9.0,88,0.00,,,0.01,388,weatherlink.com 1.10,2013-09-10 20:53:00,
2013-09-10 14:08:00,62.4,59.0,29.89,SSE,163,6.0,11.0,87,0.00,,,0.01,316,weatherlink.com 1.10,2013-09-10 21:08:00,
2013-09-10 14:23:00,62.1,58.0,29.89,SSE,159,5.0,10.0,87,0.00,,,0.01,408,weatherlink.com 1.10,2013-09-10 21:23:00,
2013-09-10 14:38:00,63.1,59.0,29.89,South,170,5.0,10.0,86,0.00,,,0.01,346,weatherlink.com 1.10,2013-09-10 21:38:00,
2013-09-10 14:53:00,62.6,58.0,29.89,South,170,5.0,8.0,86,0.00,,,0.01,276,weatherlink.com 1.10,2013-09-10 21:53:00,
2013-09-10 15:08:00,61.9,58.0,29.89,South,169,6.0,9.0,87,0.00,,,0.01,269,weatherlink.com 1.10,2013-09-10 22:08:00,
2013-09-10 15:24:00,61.3,58.0,29.89,South,176,6.0,12.0,88,0.00,,,0.01,281,weatherlink.com 1.10,2013-09-10 22:24:00,
2013-09-10 15:39:00,61.4,59.0,29.89,South,169,8.0,11.0,90,0.00,,,0.01,267,weatherlink.com 1.10,2013-09-10 22:39:00,
2013-09-10 17:09:00,60.5,58.0,29.89,SSE,155,3.0,13.0,92,0.00,,,0.01,158,weatherlink.com 1.10,2013-09-11 00:09:00,
2013-09-10 17:24:00,60.5,59.0,29.89,SE,146,5.0,10.0,93,0.00,,,0.01,127,weatherlink.com 1.10,2013-09-11 00:24:00,
2013-09-10 17:54:00,60.8,59.0,29.89,SE,143,6.0,8.0,92,0.00,,,0.01,81,weatherlink.com 1.10,2013-09-11 00:54:00,
2013-09-10 18:09:00,60.5,59.0,29.89,SSE,150,6.0,11.0,93,0.00,,,0.01,62,weatherlink.com 1.10,2013-09-11 01:09:00,
2013-09-10 18:24:00,60.4,58.0,29.89,SE,132,5.0,10.0,93,0.00,,,0.01,47,weatherlink.com 1.10,2013-09-11 01:24:00,
2013-09-10 18:39:00,60.3,58.0,29.89,SE,139,6.0,8.0,93,0.00,,,0.01,33,weatherlink.com 1.10,2013-09-11 01:39:00,
2013-09-10 19:09:00,59.9,58.0,29.89,SE,134,4.0,6.0,94,0.00,,,0.01,5,weatherlink.com 1.10,2013-09-11 02:09:00,
2013-09-10 19:24:00,59.8,58.0,29.90,South,171,6.0,8.0,94,0.00,,,0.01,0,weatherlink.com 1.10,2013-09-11 02:24:00,
2013-09-10 19:40:00,59.8,58.0,29.90,SE,134,3.0,11.0,94,0.00,,,0.01,0,weatherlink.com 1.10,2013-09-11 02:40:00,
2013-09-10 20:10:00,59.7,58.0,29.91,SE,133,3.0,9.0,94,0.00,,,0.01,0,weatherlink.com 1.10,2013-09-11 03:10:00,
2013-09-10 21:25:00,59.4,58.0,29.92,SSE,153,5.0,7.0,94,0.00,,,0.01,0,weatherlink.com 1.10,2013-09-11 04:25:00,
2013-09-10 21:40:00,59.3,58.0,29.93,SE,136,6.0,10.0,94,0.00,,,0.01,0,weatherlink.com 1.10,2013-09-11 04:40:00,
2013-09-10 22:26:00,59.8,58.0,29.93,SE,132,4.0,5.0,95,0.00,,,0.01,0,weatherlink.com 1.10,2013-09-11 05:26:00,
2013-09-10 22:40:00,59.5,58.0,29.94,SSE,149,4.0,8.0,95,0.00,,,0.01,0,weatherlink.com 1.10,2013-09-11 05:40:00,
2013-09-10 22:55:00,59.6,58.0,29.94,SE,141,2.0,9.0,95,0.00,,,0.01,0,weatherlink.com 1.10,2013-09-11 05:55:00,
2013-09-10 23:25:00,59.9,59.0,29.94,SE,142,1.0,6.0,95,0.00,,,0.01,0,weatherlink.com 1.10,2013-09-11 06:25:00,
2013-09-10 23:40:00,59.6,58.0,29.94,SE,132,5.0,10.0,95,0.00,,,0.01,0,weatherlink.com 1.10,2013-09-11 06:40:00,